sat.trackr.live / text

‹ back to catalog

STARLINK-37212

NORAD 68566 · 2026-070AA

PAYLOAD ACTIVE UNKNOWN

§ Identity

Operator
Country
US
Launch date
2026-04-02
Launch site
AFETR
Launch vehicle
Mass (kg)
RCS (m²)

Purposes: comms

External: N2YO · Heavens-Above · Gunter

§ Orbital elements

Epoch: 2026-05-24T21:35:09.362688Z

Period
93.85 min
Inclination
53.1597°
Eccentricity
0.0000577
Mean motion
15.34399352 rev/d
Perigee alt
462.3 km
Apogee alt
463.1 km
Semi-major
6,840.8 km
B*
6.1363e-4
RAAN
7.8184°
Arg perigee
82.6120°
Mean anomaly
277.4948°
Rev number
823

§ Raw data

STARLINK-372121 68566U 26070AA  26144.89941392  .00020413  00000+0  61363-3 0  99992 68566  53.1597   7.8184 0000577  82.6120 277.4948 15.34399352  8237

JSON: /api/v1/satellites/68566 · /tle

For live sub-satellite position, see the globe view (requires WebGL).

§ Visibility from observer

Set your observer location to see the next 7 days of passes ≥ 10°. The values pass through the URL so the page stays shareable.

No JS? Fill the form by hand. The geolocation button needs JavaScript.